Retour au catalogue

STARLINK-38127

ActifCommunicationsSSO
NORAD 100155·PAYLOAD·🇺🇸 United States

Lancé Jul 25, 2026 depuis Vandenberg Space Force Base

Loading…

Prochains Passages (prochaines 24 heures)

TLE

FraisSource: Space-Track

Époque: Sep 14, 2026, 22:06 UTC

1 A0155U 26171H   26257.92089188  .00018675  00000-0  51787-3 0  9993
2 A0155  97.2834 290.4809 0001175  72.5067 287.6306 15.36980493  8041

Suivez STARLINK-38127 en temps réel avec AllMySat

Download on the App Store